WZZ1213 LHDC-LROP

Flight info

Callsign WZZ1213
Flight time N/A
Altitude 37000
Route NARKA DCT NEPOT DCT TOSVI
Aircraft A20N/M-SDE2E3FGHIRWXY/LB1

Departure

Time 2026-04-22 14:43
Airport Debrecen International Airport (LHDC)

Arrival

Time N/A
Airport Bucharest Henri Coandă International Airport (LROP)
Time Latitude Longitude Altitude Speed Heading
2026-04-22 14:31 47.48760 21.60495 367 ft 0 kts 131°
2026-04-22 14:36 47.48761 21.60494 367 ft 3 kts 131°
2026-04-22 14:36 47.48773 21.60473 346 ft 3 kts 161°
2026-04-22 14:37 47.48789 21.60475 378 ft 1 kts 223°
2026-04-22 14:37 47.48789 21.60476 378 ft 0 kts 223°
2026-04-22 14:39 47.48773 21.60452 367 ft 6 kts 225°
2026-04-22 14:40 47.48684 21.60325 365 ft 14 kts 223°
2026-04-22 14:40 47.48587 21.60189 364 ft 15 kts 223°
2026-04-22 14:40 47.48509 21.60080 366 ft 15 kts 224°
2026-04-22 14:40 47.48429 21.59979 364 ft 15 kts 200°
2026-04-22 14:41 47.48349 21.60036 363 ft 12 kts 135°
2026-04-22 14:41 47.48289 21.60122 363 ft 12 kts 137°
2026-04-22 14:41 47.48233 21.60195 364 ft 10 kts 139°
2026-04-22 14:41 47.48183 21.60260 369 ft 10 kts 138°
2026-04-22 14:42 47.48170 21.60354 368 ft 7 kts 56°
2026-04-22 14:42 47.48231 21.60458 367 ft 36 kts 48°
2026-04-22 14:42 47.48553 21.60980 371 ft 101 kts 47°
2026-04-22 14:42 47.49171 21.61991 406 ft 156 kts 46°
2026-04-22 14:43 47.49940 21.63230 850 ft 170 kts 45°
2026-04-22 14:43 47.50788 21.64522 1393 ft 180 kts 43°
2026-04-22 14:43 47.51660 21.65883 2123 ft 184 kts 45°
2026-04-22 14:43 47.52547 21.67381 2618 ft 201 kts 46°
2026-04-22 14:44 47.53453 21.69023 3189 ft 213 kts 53°
2026-04-22 14:44 47.54088 21.71095 3663 ft 231 kts 75°
2026-04-22 14:44 47.53989 21.73548 4138 ft 257 kts 109°
2026-04-22 14:44 47.52860 21.75624 4748 ft 273 kts 146°
2026-04-22 14:45 47.51062 21.76471 5525 ft 265 kts 178°
2026-04-22 14:45 47.49381 21.76135 6135 ft 223 kts 198°
2026-04-22 14:45 47.48088 21.75255 6340 ft 196 kts 213°
2026-04-22 14:45 47.46837 21.74138 5524 ft 223 kts 214°
2026-04-22 14:46 47.45532 21.72865 5319 ft 219 kts 217°
2026-04-22 14:46 47.44299 21.71575 5118 ft 214 kts 219°
2026-04-22 14:46 47.43053 21.70203 3895 ft 252 kts 219°
2026-04-22 14:46 47.41677 21.68632 3739 ft 244 kts 219°
2026-04-22 14:47 47.40320 21.67138 3362 ft 247 kts 221°
2026-04-22 14:47 47.39092 21.65568 3600 ft 220 kts 221°
2026-04-22 14:47 47.37909 21.64233 3331 ft 216 kts 218°
2026-04-22 14:47 47.36768 21.62859 3127 ft 211 kts 229°
2026-04-22 14:48 47.35708 21.61330 2736 ft 214 kts 226°
2026-04-22 14:48 47.34667 21.59775 2707 ft 180 kts 231°
2026-04-22 14:48 47.33821 21.58481 2512 ft 188 kts 228°
2026-04-22 14:48 47.32908 21.56981 1886 ft 208 kts 234°
2026-04-22 14:49 47.32092 21.55164 1576 ft 205 kts 244°
2026-04-22 14:49 47.31407 21.53397 1347 ft 196 kts 245°
2026-04-22 14:49 47.30841 21.51500 774 ft 203 kts 252°
2026-04-22 14:49 47.30580 21.49586 785 ft 172 kts 270°
2026-04-22 14:50 47.30607 21.47963 700 ft 147 kts 293°
2026-04-22 14:50 47.31188 21.46797 392 ft 141 kts 319°
2026-04-22 14:50 47.31545 21.46278 315 ft 0 kts 320°
2026-04-22 14:50 47.48760 21.60496 367 ft 0 kts 131°
2026-04-22 14:51 47.48760 21.60495 367 ft 0 kts 131°
2026-04-22 14:53 47.48770 21.60479 366 ft 3 kts 131°
2026-04-22 14:53 47.48782 21.60458 366 ft 3 kts 131°
2026-04-22 14:54 47.48797 21.60447 365 ft 3 kts 202°
2026-04-22 14:54 47.48800 21.60449 365 ft 0 kts 214°
2026-04-22 14:55 47.48797 21.60431 369 ft 1 kts 269°
2026-04-22 14:55 47.48797 21.60429 369 ft 0 kts 274°
2026-04-22 14:56 47.48797 21.60421 367 ft 11 kts 273°
2026-04-22 14:56 47.48798 21.60381 365 ft 0 kts 259°